Pittsburgh, PA

11:02 AM EST on February 14, 2016 (GMT -0500)
Allegheny County

Weather History for KAGC - March, 2014

Change the Weather History Date:

Wednesday, March 12, 2014

  Actual Average Record
Temperature  
Mean Temperature 36 °F -  
Max Temperature 54 °F 55 °F 66 °F (1988)
Min Temperature 19 °F 27 °F 12 °F (1998)
Degree Days  
Heating Degree Days 28    
Moisture  
Dew Point 35 °F    
Average Humidity 81    
Maximum Humidity 94    
Minimum Humidity 43    
Precipitation  
Precipitation 0.84 in - - ()
Sea Level Pressure  
Sea Level Pressure 29.32 in    
Wind  
Wind Speed 8 mph (NNW)    
Max Wind Speed 24 mph    
Max Gust Speed 41 mph    
Visibility 4 miles    
Events Fog , Rain , Snow    
Averages and records for this station are not official NWS values.
T = Trace of Precipitation, MM = Missing Value Source: NWS Daily Summary

Daily Weather History Graph

Daily Weather History Graph

Search for Another Location

Airport or City:

Trip Planner

Search our weather history database for the weather conditions in past years. The results will help you decide how hot, cold, wet, or windy it might be!

Date:

Astronomy

Mar. 12, 2014 Rise Set
Actual Time 7:36 AM EDT 7:23 PM EDT
Civil Twilight 7:09 AM EDT 7:50 PM EDT
Nautical Twilight 6:37 AM EDT 8:22 PM EDT
Astronomical Twilight 6:05 AM EDT 8:53 PM EDT
Moon 3:52 PM EDT (3/12) 5:07 AM EDT (3/12)
Length of Visible Light 12h 41m
Length of Day
11h 47m
Waxing Gibbous, 85% of the Moon is Illuminated
Mar 12
Waxing Gibbous
Mar 16
Full
Mar 23
Last Quarter
Mar 30
New
Apr 7
First Quarter

Hourly Weather History & Observations

Time (EDT) Temp. Windchill Dew Point Humidity Pressure Visibility Wind Dir Wind Speed Gust Speed Precip Events Conditions
12:53 AM 54.0 °F - 32.0 °F 43% 29.61 in 10.0 mi NNW 4.6 mph - N/A   Clear
1:53 AM 52.0 °F - 30.9 °F 45% 29.57 in 10.0 mi North 3.5 mph - N/A   Clear
2:53 AM 51.1 °F - 32.0 °F 48% 29.54 in 10.0 mi Calm Calm - N/A   Partly Cloudy
3:53 AM 48.9 °F - 32.0 °F 52% 29.50 in 10.0 mi Calm Calm - N/A   Overcast
4:53 AM 48.0 °F - 32.0 °F 54% 29.45 in 10.0 mi NNE 4.6 mph - N/A   Overcast
5:53 AM 48.0 °F - 32.0 °F 54% 29.41 in 10.0 mi East 5.8 mph - N/A   Overcast
6:53 AM 46.9 °F - 34.0 °F 61% 29.38 in 10.0 mi North 3.5 mph - 0.00 in   Overcast
7:53 AM 46.0 °F 44.8 °F 35.1 °F 66% 29.33 in 4.0 mi ENE 3.5 mph - 0.01 in Rain Light Rain
8:53 AM 43.0 °F 40.3 °F 39.0 °F 86% 29.30 in 3.0 mi NNE 4.6 mph - 0.07 in Rain Light Rain
9:03 AM 42.8 °F 41.1 °F 39.2 °F 87% 29.30 in 1.8 mi North 3.5 mph - 0.06 in Rain Rain
9:09 AM 42.8 °F 40.1 °F 39.2 °F 87% 29.31 in 0.8 mi NNW 4.6 mph - 0.09 in Rain Rain
9:20 AM 42.8 °F 41.1 °F 39.2 °F 87% 29.28 in 1.5 mi NE 3.5 mph - 0.16 in Rain Rain
9:39 AM 42.8 °F 40.1 °F 41.0 °F 93% 29.27 in 2.0 mi ESE 4.6 mph - 0.24 in Rain Rain
9:49 AM 44.6 °F 42.2 °F 41.0 °F 87% 29.26 in 1.2 mi ESE 4.6 mph - 0.27 in Rain Light Rain
9:53 AM 44.1 °F 40.8 °F 41.0 °F 89% 29.27 in 1.0 mi SE 5.8 mph - 0.28 in Rain Rain
10:02 AM 42.8 °F 38.0 °F 41.0 °F 93% 29.24 in 0.2 mi ESE 8.1 mph - 0.03 in Fog , Rain Rain
10:09 AM 42.8 °F 38.0 °F 41.0 °F 93% 29.24 in 0.2 mi SE 8.1 mph - 0.07 in Fog , Rain Rain
10:19 AM 44.6 °F 41.4 °F 41.0 °F 87% 29.23 in 0.5 mi ESE 5.8 mph - 0.08 in Fog , Rain Light Rain
10:30 AM 44.6 °F 40.7 °F 42.8 °F 93% 29.22 in 0.5 mi ESE 6.9 mph - 0.10 in Fog , Rain Light Rain
10:53 AM 45.0 °F 41.8 °F 43.0 °F 93% 29.21 in 0.5 mi SE 5.8 mph - 0.13 in Fog , Rain Light Rain
11:06 AM 44.6 °F 41.4 °F 42.8 °F 93% 29.18 in 0.2 mi SE 5.8 mph - 0.01 in Fog , Rain Light Rain
11:27 AM 46.4 °F 41.1 °F 44.6 °F 93% 29.16 in 1.2 mi SSE 11.5 mph - 0.07 in Rain Light Rain
11:39 AM 46.4 °F 41.5 °F 44.6 °F 93% 29.15 in 1.8 mi SSE 10.4 mph 19.6 mph 0.07 in Rain Light Rain
11:53 AM 48.0 °F - 46.0 °F 93% 29.15 in 1.5 mi South 10.4 mph - 0.08 in Rain Light Rain
12:22 PM 50.0 °F - 48.2 °F 94% 29.12 in 2.5 mi South 11.5 mph - 0.02 in Rain Light Rain
12:32 PM 50.0 °F - 48.2 °F 94% 29.11 in 4.0 mi South 10.4 mph - 0.02 in   Overcast
12:43 PM 51.8 °F - 48.2 °F 88% 29.11 in 2.0 mi SSW 11.5 mph - 0.04 in Rain Light Rain
12:53 PM 51.1 °F - 48.9 °F 92% 29.12 in 2.5 mi SW 8.1 mph 18.4 mph 0.05 in Rain Light Rain
1:00 PM 51.8 °F - 48.2 °F 88% 29.10 in 3.0 mi SSW 9.2 mph - 0.01 in Rain Light Rain
1:09 PM 51.8 °F - 50.0 °F 94% 29.11 in 2.5 mi West 9.2 mph - 0.02 in Rain Light Rain
1:18 PM 51.8 °F - 48.2 °F 88% 29.11 in 1.2 mi NW 11.5 mph 18.4 mph 0.06 in Rain Rain
1:33 PM 46.4 °F 40.7 °F 44.6 °F 93% 29.10 in 2.5 mi NNW 12.7 mph 24.2 mph 0.09 in Rain Rain
1:53 PM 46.0 °F 41.4 °F 44.1 °F 93% 29.11 in 2.5 mi NW 9.2 mph - 0.13 in Rain Light Rain
2:06 PM 44.6 °F 38.8 °F 41.0 °F 87% 29.08 in 3.0 mi NW 11.5 mph 20.7 mph 0.02 in Rain Light Rain
2:24 PM 42.8 °F 37.5 °F 39.2 °F 87% 29.09 in 2.0 mi NW 9.2 mph 16.1 mph 0.08 in Rain Rain
2:51 PM 42.8 °F 35.1 °F 39.2 °F 87% 29.10 in 7.0 mi NW 16.1 mph 21.9 mph 0.09 in   Overcast
2:53 PM 41.0 °F 33.1 °F 37.9 °F 89% 29.13 in 7.0 mi NW 15.0 mph 23.0 mph 0.09 in   Overcast
3:50 PM 35.6 °F 25.9 °F 33.8 °F 93% 29.18 in 1.8 mi NNW 16.1 mph 27.6 mph 0.00 in Snow Light Snow
3:53 PM 36.0 °F 25.6 °F 33.1 °F 89% 29.22 in 1.8 mi NW 18.4 mph 28.8 mph 0.00 in Snow Light Snow
4:02 PM 35.6 °F 25.9 °F 32.0 °F 87% 29.20 in 2.5 mi NW 16.1 mph 28.8 mph 0.00 in   Overcast
4:11 PM 33.8 °F 22.8 °F 30.2 °F 87% 29.23 in 3.0 mi NW 18.4 mph 35.7 mph 0.00 in   Overcast
4:27 PM 32.0 °F 19.5 °F 28.4 °F 87% 29.26 in 3.0 mi NNW 21.9 mph 34.5 mph 0.00 in Rain Light Freezing Rain
4:53 PM 30.9 °F 19.4 °F 27.0 °F 85% 29.34 in 4.0 mi NW 17.3 mph 34.5 mph 0.00 in   Overcast
5:07 PM 30.2 °F 16.8 °F 26.6 °F 86% 29.33 in 2.5 mi NW 23.0 mph 38.0 mph 0.00 in Snow Light Snow
5:31 PM 30.2 °F 17.8 °F 24.8 °F 80% 29.38 in 4.0 mi NW 19.6 mph 32.2 mph 0.00 in   Overcast
5:53 PM 28.0 °F 13.6 °F 21.9 °F 78% 29.45 in 10.0 mi NNW 24.2 mph 41.4 mph 0.00 in   Overcast
6:53 PM 27.0 °F 12.8 °F 17.1 °F 66% 29.56 in 10.0 mi NW 21.9 mph 35.7 mph N/A   Overcast
7:53 PM 26.1 °F 13.6 °F 16.0 °F 66% 29.64 in 9.0 mi NNW 16.1 mph 39.1 mph 0.00 in   Overcast
8:53 PM 25.0 °F 10.6 °F 17.1 °F 72% 29.68 in 10.0 mi NNW 20.7 mph 33.4 mph 0.00 in   Overcast
9:53 PM 24.1 °F 9.0 °F 15.1 °F 69% 29.71 in 9.0 mi NNW 21.9 mph 35.7 mph 0.00 in   Overcast
10:53 PM 21.9 °F 8.2 °F 12.9 °F 68% 29.75 in 10.0 mi NNW 16.1 mph 31.1 mph 0.00 in   Overcast
11:37 PM 19.4 °F 6.0 °F 12.2 °F 74% 29.72 in 1.8 mi NW 13.8 mph 26.5 mph 0.00 in Snow Light Snow
11:53 PM 19.0 °F 2.7 °F 10.9 °F 71% 29.78 in 1.2 mi NW 20.7 mph 33.4 mph 0.00 in Snow Light Snow
11:58 PM 19.4 °F 2.8 °F 8.6 °F 63% 29.73 in 3.0 mi NW 21.9 mph 38.0 mph 0.00 in Snow Light Snow